Location: Glenmont
(42.6048°N, 73.7696°W)
Time: 08:12:23
(UTC+00:00)

Tsikada Rocket - Pass Details

Date: 08 September 2024
Orbit: 958 x 1008 km, 82.9° (Epoch: 12 October)

Event Time Altitude Azimuth Distance (km) Brightness Sun altitude
Rises 23:43:34 0° 356° (N) 3,677 7.3 -5.8°
Reaches altitude 10° 23:46:09 10° 0° (N) 2,732 6.5 -6.2°
Maximum altitude 23:52:18 56° 79° (ENE) 1,160 4.1 -7.3°
Drops below altitude 10° 23:58:28 10° 157° (SSE) 2,749 6.0 -8.4°
Sets 00:01:03 0° 161° (SSE) 3,700 6.7 -8.9°
